{"data":{"norad_id":43931,"intl_designator":"2019-002K","name":"IRIDIUM 167","alt_names":[],"object_type":"PAYLOAD","status":"ACTIVE","operator":null,"country":"US","launch_date":"2019-01-11","launch_site_code":"AFWTR","launch_vehicle":null,"mission":null,"orbit_class":"UNKNOWN","rcs_meters":null,"size_class":null,"mass_kg":null,"dimensions":null,"purposes":["comms"],"wikipedia_slug":null,"has_3d_model":false,"image_url":null,"decayed_at":null,"tle_current":{"epoch":"2026-05-25T03:09:10.876032Z","epoch_age_seconds":70672,"freshness":"FRESH","line1":"1 43931U 19002K   26145.13137588  .00000068  00000+0  17158-4 0  9995","line2":"2 43931  86.3984   3.2334 0002063  78.2117 281.9310 14.34218047385657","mean_motion":14.34218047,"eccentricity":0.0002063,"inclination_deg":86.3984,"raan_deg":3.2334,"arg_perigee_deg":78.2117,"mean_anomaly_deg":281.931,"bstar":1.7158e-5,"rev_number":38565,"period_min":100.40314323279,"perigee_km":776.18992427052,"apogee_km":779.142408657,"semimajor_km":7155.8031664638,"source":"CELESTRAK","updated_at":"2026-05-25T13:38:14.816110Z"}}}